www.nordhorn-wetter.com
Wetterdaten: aktuell Freitag, 04.09.2026 18:46
Datum Zeit Temp. A. BodenT -5cm Temp +10cm Extra Temp Feuchte A. BlattFeuchte Bod.Feu -5cm Luftdruck Regen Wind Richtung Richtung Sonnenschein ET UV Solar Taupunkt Windböen Empfang
04.09.2026 18:46 16,8 °C 0,0 °C 18,9 °C 17,9 °C 91 % 12 lf 25 cb 1009,9 hPa 0,2 mm 15,2 km/h (3 Bft) NW 317 ° 0 min 0,000 mm 0,0 UV-I 38 W/m² 15,3 °C 22,5 km/h (4 Bft) 91,30 %
04.09.2026 17:46 17,7 °C 0,0 °C 19,4 °C 18,4 °C 94 % 4 lf 26 cb 1009,2 hPa 0,0 mm 10,6 km/h (2 Bft) W-NW 292 ° 0 min 0,000 mm 0,1 UV-I 61 W/m² 16,7 °C 17,7 km/h (3 Bft) 95,65 %
04.09.2026 16:46 17,6 °C 0,0 °C 19,4 °C 18,4 °C 97 % 15 lf 26 cb 1008,7 hPa 0,8 mm 8,7 km/h (2 Bft) W 267 ° 0 min 0,000 mm 1,0 UV-I 161 W/m² 17,1 °C 12,9 km/h (3 Bft) 91,30 %
04.09.2026 15:46 17,4 °C 0,0 °C 19,4 °C 18,4 °C 97 % 15 lf 27 cb 1008,1 hPa 2,0 mm 8,2 km/h (2 Bft) SW 235 ° 0 min 0,000 mm 0,6 UV-I 71 W/m² 16,9 °C 12,9 km/h (3 Bft) 91,67 %
04.09.2026 14:46 17,7 °C 0,0 °C 20,0 °C 18,4 °C 96 % 15 lf 27 cb 1008,2 hPa 1,2 mm 7,8 km/h (2 Bft) W 265 ° 0 min 0,000 mm 0,7 UV-I 81 W/m² 17,1 °C 11,3 km/h (2 Bft) 95,65 %
04.09.2026 13:46 18,6 °C 0,0 °C 20,0 °C 18,4 °C 92 % 15 lf 26 cb 1007,8 hPa 3,2 mm 7,8 km/h (2 Bft) W 273 ° 0 min 0,000 mm 1,7 UV-I 212 W/m² 17,3 °C 14,5 km/h (3 Bft) 95,83 %
04.09.2026 12:46 20,6 °C 0,0 °C 20,0 °C 18,4 °C 90 % 15 lf 26 cb 1006,9 hPa 0,0 mm 14,3 km/h (3 Bft) SW 232 ° 3 min 0,000 mm 0,8 UV-I 91 W/m² 18,9 °C 22,5 km/h (4 Bft) 95,65 %
04.09.2026 11:46 19,8 °C 0,0 °C 19,4 °C 17,9 °C 93 % 15 lf 26 cb 1007,2 hPa 0,0 mm 14,3 km/h (3 Bft) SW 234 ° 0 min 0,000 mm 1,6 UV-I 213 W/m² 18,6 °C 20,9 km/h (4 Bft) 91,67 %
04.09.2026 10:46 20,7 °C 0,0 °C 19,4 °C 17,9 °C 86 % 0 lf 26 cb 1007,3 hPa 0,0 mm 15,1 km/h (3 Bft) SW 232 ° 0 min 0,000 mm 1,3 UV-I 179 W/m² 18,3 °C 35,4 km/h (5 Bft) 95,65 %
04.09.2026 09:46 20,6 °C 0,0 °C 19,4 °C 17,9 °C 85 % 0 lf 26 cb 1007,5 hPa 0,0 mm 17,2 km/h (3 Bft) SW 232 ° 0 min 0,000 mm 1,0 UV-I 176 W/m² 18,0 °C 25,7 km/h (4 Bft) 100,00 %
04.09.2026 08:46 19,9 °C 0,0 °C 19,4 °C 18,4 °C 87 % 0 lf 25 cb 1008,5 hPa 0,2 mm 13,1 km/h (3 Bft) W 259 ° 0 min 0,000 mm 0,0 UV-I 26 W/m² 17,7 °C 17,7 km/h (3 Bft) 87,50 %
04.09.2026 07:46 19,7 °C 0,0 °C 19,4 °C 18,4 °C 88 % 0 lf 25 cb 1008,9 hPa 0,0 mm 11,9 km/h (2 Bft) S 191 ° 0 min 0,000 mm 0,0 UV-I 22 W/m² 17,7 °C 17,7 km/h (3 Bft) 95,65 %
04.09.2026 06:46 19,2 °C 0,0 °C 19,4 °C 18,4 °C 92 % 0 lf 25 cb 1009,7 hPa 0,0 mm 11,1 km/h (2 Bft) S-SW 209 ° 0 min 0,000 mm 0,0 UV-I 0 W/m² 17,9 °C 16,1 km/h (3 Bft) 95,83 %
04.09.2026 05:46 19,1 °C 0,0 °C 19,4 °C 18,4 °C 93 % 0 lf 25 cb 1010,2 hPa 0,0 mm 12,2 km/h (2 Bft) SW 223 ° 0 min 0,000 mm 0,0 UV-I 0 W/m² 17,9 °C 16,1 km/h (3 Bft) 100,00 %
04.09.2026 04:46 18,7 °C 0,0 °C 19,4 °C 18,4 °C 94 % 0 lf 25 cb 1011,1 hPa 0,2 mm 8,3 km/h (2 Bft) W-SW 248 ° 0 min 0,000 mm 0,0 UV-I 0 W/m² 17,7 °C 11,3 km/h (2 Bft) 100,00 %
04.09.2026 03:46 19,1 °C 0,0 °C 19,4 °C 18,4 °C 92 % 0 lf 25 cb 1011,5 hPa 0,0 mm 8,8 km/h (2 Bft) S-SW 211 ° 0 min 0,000 mm 0,0 UV-I 0 W/m² 17,8 °C 14,5 km/h (3 Bft) 95,65 %
04.09.2026 02:46 18,3 °C 0,0 °C 19,4 °C 18,4 °C 92 % 0 lf 25 cb 1012,4 hPa 0,0 mm 7,3 km/h (2 Bft) W-SW 251 ° 0 min 0,000 mm 0,0 UV-I 0 W/m² 17,0 °C 12,9 km/h (3 Bft) 95,83 %
04.09.2026 01:46 18,7 °C 0,0 °C 19,4 °C 18,4 °C 89 % 0 lf 25 cb 1013,1 hPa 0,0 mm 5,6 km/h (2 Bft) W 262 ° 0 min 0,000 mm 0,0 UV-I 0 W/m² 16,8 °C 9,7 km/h (2 Bft) 100,00 %
04.09.2026 00:46 18,4 °C 0,0 °C 19,4 °C 18,4 °C 89 % 0 lf 25 cb 1013,6 hPa 0,0 mm 3,4 km/h (1 Bft) SW 225 ° 0 min 2,032 mm 0,0 UV-I 0 W/m² 16,6 °C 4,8 km/h (1 Bft) 95,65 %
04.09.2026 00:00 18,5 °C 0,0 °C 19,4 °C 18,4 °C 88 % 0 lf 25 cb 1014,4 hPa 0,0 mm 5,9 km/h (2 Bft) W-SW 244 ° 0 min 0,000 mm 0,0 UV-I 0 W/m² 16,5 °C 8,0 km/h (2 Bft) 100,00 %
_ Min-Zeit 18:44 18:46 18:46 18:46 10:16 12:38 18:46 12:43 - 00:22 - - - - - - 18:25 00:22 11:54
Minimum _ 16,7 °C 0,0 °C 18,9 °C 17,9 °C 84 % 0 lf 25 cb 1006,8 hPa - 0,3 km/h (0 Bft) - - - - - - 15,0 °C 3,2 km/h (1 Bft) 78,26 %
_ Max-Zeit 12:39 18:46 14:51 17:56 16:50 18:37 16:12 00:00 12:56 11:26 - - 12:24 00:02 13:09 12:24 12:25 10:45 18:37
Maximum _ 20,9 °C 0,0 °C 20,0 °C 18,4 °C 97 % 15 lf 27 cb 1014,4 hPa 1,0 mm 25,3 km/h
SW (4 Bft)
- - 1 min 2,032 mm 2,7 UV-I 422 W/m² 19,2 °C 45,1 km/h
SW (6 Bft)
100,00 %
Durchschnitt _ 18,9 °C 0,0 °C 19,5 °C 18,3 °C 91 % 5 lf 26 cb 1009,5 hPa #7,8 mm 10,8 km/h (2 Bft) SW - #3 min. #2,032 mm 1,0 UV-I 109 W/m² 17,4 °C 17,8 km/h (3 Bft) 96,13 %
© 2006-2026 Nordhorn-Wetter.com